GW4477 Weather Reports


time (UTC)temp
F
wind
direction
speed
knots
gust
knots
rain 1hr
in
rain 24hr
in
rain mn
in
humidity
%
barometer
mb
20260902133012 71 360 0.0 3.5 0.00 0.00 0.00 67 1017.0
20260902131514 71 360 1.7 4.3 0.00 0.00 0.00 67 1016.7
20260902130015 70 220 1.7 5.2 0.00 0.00 0.00 68 1016.7
20260902124507 70 195 2.6 7.0 0.00 0.00 0.00 69 1016.6
20260902123013 69 360 1.7 4.3 0.00 0.00 0.00 71 1016.4
20260902121516 67 174 2.6 4.3 0.00 0.00 0.00 74 1016.2
20260902120017 66 360 0.9 3.5 0.00 0.00 0.00 76 1016.1
20260902114518 67 238 0.0 2.6 0.00 0.00 0.00 74 1015.9
20260902113013 68 230 0.9 4.3 0.00 0.00 0.00 72 1016.0
20260902111527 69 200 0.9 3.5 0.00 0.00 0.00 70 1016.0
20260902110023 70 360 2.6 5.2 0.00 0.00 0.00 69 1016.0
20260902104524 70 194 1.7 6.1 0.00 0.00 0.00 68 1016.1
20260902103022 71 182 1.7 6.1 0.00 0.00 0.00 67 1016.2
20260902101521 71 205 2.6 7.0 0.00 0.00 0.00 65 1016.1
20260902100023 72 360 3.5 7.0 0.00 0.00 0.00 64 1016.1
20260902094528 72 360 2.6 7.8 0.00 0.00 0.00 63 1016.1
20260902093026 73 360 2.6 5.2 0.00 0.00 0.00 63 1016.2
20260902091527 73 360 2.6 5.2 0.00 0.00 0.00 63 1016.2
20260902090023 73 197 1.7 5.2 0.00 0.00 0.00 62 1016.2
20260902084527 74 177 2.6 7.0 0.00 0.00 0.00 61 1016.3
20260902083027 74 193 2.6 7.0 0.00 0.00 0.00 61 1016.3
20260902081512 74 218 2.6 5.2 0.00 0.00 0.00 62 1016.3
20260902080020 74 219 1.7 7.0 0.00 0.00 0.00 63 1016.2
20260902074526 73 185 3.5 6.1 0.00 0.00 0.00 64 1016.2
20260902073008 73 177 1.7 4.3 0.00 0.00 0.00 66 1016.1
20260902071518 73 219 1.7 5.2 0.00 0.00 0.00 65 1016.1
20260902070017 72 167 2.6 7.0 0.00 0.00 0.00 68 1016.1
20260902064527 71 202 0.9 2.6 0.00 0.00 0.00 70 1016.2
20260902063038 71 182 0.0 1.7 0.00 0.00 0.00 70 1016.2
20260902061510 71 163 0.0 1.7 0.00 0.00 0.00 69 1016.2
20260902060015 71 186 0.0 2.6 0.00 0.00 0.00 68 1016.1
20260902054525 71 201 0.9 2.6 0.00 0.00 0.00 68 1016.2
20260902053027 71 216 0.0 1.7 0.00 0.00 0.00 68 1016.2
20260902051509 72 257 0.0 1.7 0.00 0.00 0.00 67 1016.2
20260902050046 73 261 0.0 2.6 0.00 0.00 0.00 66 1016.4
20260902044518 74 202 0.0 1.7 0.00 0.00 0.00 64 1016.3
20260902043032 74 211 0.9 3.5 0.00 0.00 0.00 63 1016.3
20260902041531 75 199 1.7 5.2 0.00 0.00 0.00 62 1016.1
20260902040010 76 206 0.9 3.5 0.00 0.00 0.00 60 1016.2
20260902034522 76 204 1.7 4.3 0.00 0.00 0.00 59 1016.3
20260902033021 76 191 1.7 4.3 0.00 0.00 0.00 59 1016.1
20260902031527 75 145 1.7 3.5 0.00 0.00 0.00 61 1016.0
20260902030031 76 199 1.7 3.5 0.00 0.00 0.00 59 1015.5
20260902024515 76 186 0.9 2.6 0.00 0.00 0.00 58 1015.4
20260902023019 77 202 0.0 1.7 0.00 0.00 0.00 55 1015.4
20260902021528 78 195 0.0 0.0 0.00 0.00 0.00 53 1015.3
20260902020033 79 340 0.0 0.0 0.00 0.00 0.00 51 1015.2
20260902014516 80 340 0.0 1.7 0.00 0.00 0.00 50 1015.2
20260902013017 81 325 0.0 5.2 0.00 0.00 0.00 50 1015.3
20260902011510 82 315 0.9 2.6 0.00 0.00 0.00 50 1015.4
20260902010011 84 336 0.9 5.2 0.00 0.00 0.00 47 1015.6
20260902004512 86 360 0.0 2.6 0.00 0.00 0.00 43 1015.5
20260902003022 88 215 0.9 3.5 0.00 0.00 0.00 40 1015.1
20260902001523 88 209 1.7 3.5 0.00 0.00 0.00 39 1015.2
20260902000006 89 170 0.9 2.6 0.00 0.00 0.00 38 1015.2
20260901234509 91 177 1.7 7.0 0.00 0.00 0.00 36 1015.1
20260901233014 92 180 2.6 6.1 0.00 0.00 0.00 34 1014.9
20260901231524 94 177 4.3 7.8 0.00 0.00 0.00 33 1015.0
20260901230027 95 230 4.3 11.3 0.00 0.00 0.00 31 1014.8
20260901224508 95 239 2.6 10.4 0.00 0.00 0.00 31 1014.7
20260901223012 95 250 4.3 12.2 0.00 0.00 0.00 31 1014.8
20260901221516 96 360 5.2 11.3 0.00 0.00 0.00 31 1015.0
20260901220038 96 260 4.3 11.3 0.00 0.00 0.00 32 1015.1
20260901214529 94 168 3.5 10.4 0.00 0.00 0.00 31 1015.3
20260901213013 96 199 2.6 7.0 0.00 0.00 0.00 30 1015.4
20260901211518 95 360 4.3 10.4 0.00 0.00 0.00 30 1015.5
20260901210026 96 360 2.6 11.3 0.00 0.00 0.00 30 1015.7
20260901204535 96 360 3.5 7.8 0.00 0.00 0.00 30 1016.0
20260901203037 96 360 4.3 9.6 0.00 0.00 0.00 31 1016.3
20260901201512 96 227 4.3 11.3 0.00 0.00 0.00 29 1016.4
20260901200024 95 360 6.1 12.2 0.00 0.00 0.00 31 1016.5
20260901194525 95 188 6.1 11.3 0.00 0.00 0.00 30 1016.7
20260901193034 95 360 6.1 12.2 0.00 0.00 0.00 30 1016.8
20260901191511 95 183 4.3 13.0 0.00 0.00 0.00 32 1017.2
20260901190020 94 190 5.2 12.2 0.00 0.00 0.00 33 1017.4
20260901184503 94 203 7.8 15.6 0.00 0.00 0.00 29 1017.6
20260901183007 93 172 6.1 12.2 0.00 0.00 0.00 32 1017.8
20260901181521 94 198 2.6 8.7 0.00 0.00 0.00 35 1018.0
20260901180019 93 182 5.2 10.4 0.00 0.00 0.00 36 1018.2
20260901174545 92 211 3.5 8.7 0.00 0.00 0.00 39 1018.4
20260901173004 91 200 2.6 8.7 0.00 0.00 0.00 41 1018.5
20260901171510 91 229 1.7 7.0 0.00 0.00 0.00 41 1018.7
20260901170012 90 233 3.5 8.7 0.00 0.00 0.00 43 1018.8
20260901164525 89 244 3.5 7.0 0.00 0.00 0.00 43 1018.9
20260901163027 88 262 2.6 8.7 0.00 0.00 0.00 43 1019.0
20260901161510 87 252 4.3 7.8 0.00 0.00 0.00 44 1018.9
20260901160021 86 286 2.6 9.6 0.00 0.00 0.00 46 1018.9
20260901154518 85 256 2.6 9.6 0.00 0.00 0.00 49 1018.7
20260901153026 83 173 4.3 8.7 0.00 0.00 0.00 50 1018.7
20260901151507 81 360 4.3 8.7 0.00 0.00 0.00 54 1018.7
20260901150015 79 173 2.6 7.0 0.00 0.00 0.00 60 1018.7
20260901144517 78 219 4.3 9.6 0.00 0.00 0.00 62 1018.5
20260901143027 76 225 4.3 8.7 0.00 0.00 0.00 65 1018.7
20260901141528 75 223 4.3 9.6 0.00 0.00 0.00 67 1018.8
20260901140027 73 220 3.5 7.8 0.00 0.00 0.00 71 1018.6
20260901134522 71 214 2.6 7.0 0.00 0.00 0.00 74 1018.7